Location: *
(45.1961°N, 1.9694°E)
Time: 17:52:10
(UTC+00:00)

Cosmos 1697 Rocket - Pass Details

Date: 25 August 2019
Orbit: 831 x 845 km, 71.0° (Epoch: 23 September)

Event Time Altitude Azimuth Distance (km) Brightness Sun altitude
Rises 21:15:46 0° 328° (NNW) 3,414 7.2 -23.8°
Reaches altitude 10° 21:18:21 10° 321° (NW) 2,475 6.2 -24.1°
Maximum altitude 21:23:36 40° 254° (WSW) 1,222 3.7 -24.7°
Enters shadow 21:25:36 30° 210° (SSW) 1,472 3.7 -24.9°
